User: anonymous   Login
Location: Theydon Bois
(51.6750°N, 0.1050°E)
Time: 12:55:09
(UTC+01:00)
Language:

USA 234 - Orbit

View from above orbital plane
View from above orbital plane
View from above satellite
View from above satellite

Ground track
Ground track

The orbit data is extracted from the following two-line orbital elements,

1 38109U 12014A   18184.06368265 0.00000000  00000-0  00000-0 0    00
2 38109 122.9996  97.2411 0002000  49.9111 310.0888 13.41412539    03
Epoch (UTC): 03 July 2018 01:31:42
Eccentricity: 0.0002000
inclination: 122.9996°
perigee height: 1102 km
apogee height: 1105 km
right ascension of ascending node: 97.2411°
argument of perigee: 49.9111°
revolutions per day: 13.41412539
mean anomaly at epoch: 310.0888°
orbit number at epoch: 0

The dashed part of the orbit path shows where the satellite is in the earth's shadow,  

DLR